Location: Asheville, NC
(35.6000°N, 82.5500°W)
Time: 20:05:26

Tiangong 2 - Pass Details

Date: 17 March 2018
Orbit: 383 x 388 km, 42.8° (Epoch: 19 March)

Event Time Altitude Azimuth Distance (km) Brightness Sun altitude
Exits shadow 06:05:34 26° 348° (NNW) 796 2.6 -19.5°
Maximum altitude 06:05:34 26° 348° (NNW) 796 2.6 -19.5°
Drops below altitude 10° 06:08:19 10° 48° (NE) 1,408 4.8 -19.0°
Sets 06:10:36 0° 62° (ENE) 2,264 6.4 -18.5°
